NAVSTAR 83 (USA 440)

Last updated on Fri Jan 17 2025 00:02:03 GMT+0000 (Coordinated Universal Time)

1 62339U 24242A 25016.44435972 -.00000103 00000+0 00000+0 0 9992 2 62339 54.9983 355.0995 0004488 288.1017 166.7166 2.00555380 898
UTC large
Height (km)
Speed (km/s)
/
Latitude / Longitude
Inclination (degrees)
Orbital Period (minutes)
Azimuth
Elevation
Range (km)
Doppler Factor

Next 0 passes for location: London (51.5072 / 0.1276)

Sorry there are no passes over London.